Location: Medlow Airstrip Trail, Medlow Bath NSW 2780, Australia
(33.6682°S, 150.3233°E)
Time: 05:48:31
(UTC+11:00)

Explorer 11/Cluster Stage 4 - Pass Details

Date: 23 September 2019
Orbit: 467 x 1259 km, 28.8° (Epoch: 21 October)

Event Time Altitude Azimuth Distance (km) Brightness Sun altitude
Rises 07:36:01 0° 327° (NNW) 2,764 9.2 21.4°
Reaches altitude 10° 07:38:49 10° 348° (NNW) 1,992 8.8 22.0°
Maximum altitude 07:41:50 17° 29° (NNE) 1,710 9.2 22.6°
Drops below altitude 10° 07:45:17 10° 69° (ENE) 2,316 11.1 23.3°
Sets 07:48:53 0° 87° (E) 3,435 11.2 24.0°
